User: anonymous   Login
Location: *
(49.7115°N, 15.0136°E)
Time: 09:02:07
(UTC+00:00)
Language:

Cosmos 1937 Rocket - Orbit

View from above orbital plane
View from above orbital plane
View from above satellite
View from above satellite

Ground track
Ground track

The orbit data is extracted from the following two-line orbital elements,

1 19039U 88029B   20157.90723677 -.00000035 +00000-0 -29421-5 0  9998
2 19039 074.0483 101.7701 0023509 002.9885 357.1405 14.38474368686539
Epoch (UTC): 05 June 2020 21:46:25
Eccentricity: 0.0023509
inclination: 74.0483°
perigee height: 747 km
apogee height: 780 km
right ascension of ascending node: 101.7701°
argument of perigee: 2.9885°
revolutions per day: 14.38474368
mean anomaly at epoch: 357.1405°
orbit number at epoch: 68653

The dashed part of the orbit path shows where the satellite is in the earth's shadow,  

DLR